EN

Hourly Weather Dzierzazenko

Today, 30 October, Friday

Time Temperature Precipitation Wind Pressure Humidity
00:00 +6°C° 0 mm 4 mps 750 mmHg 90%
01:00 +6°C° 0 mm 4 mps 750 mmHg 92%
02:00 +6°C° 0 mm 4 mps 750 mmHg 91%
03:00 +6°C° 0 mm 4 mps 750 mmHg 90%
04:00 +7°C° 0 mm 3 mps 750 mmHg 88%
05:00 +7°C° 0 mm 3 mps 750 mmHg 90%
06:00 +5°C° 0 mm 3 mps 750 mmHg 92%
07:00 +6°C° 0 mm 2 mps 750 mmHg 94%
08:00 +6°C° 0 mm 2 mps 750 mmHg 91%
09:00 +7°C° 0 mm 3 mps 750 mmHg 87%
10:00 +8°C° 0 mm 3 mps 750 mmHg 84%
11:00 +8°C° 0.2 mm 3 mps 749 mmHg 87%
12:00 +8°C° 0.2 mm 3 mps 749 mmHg 89%
13:00 +8°C° 0.2 mm 3 mps 749 mmHg 91%
14:00 +8°C° 0.9 mm 2 mps 749 mmHg 93%
15:00 +8°C° 0.9 mm 2 mps 749 mmHg 95%
16:00 +8°C° 0.9 mm 2 mps 749 mmHg 96%
17:00 +9°C° 0.5 mm 1 mps 749 mmHg 97%
18:00 +9°C° 0.5 mm 1 mps 750 mmHg 97%
19:00 +9°C° 0.5 mm 1 mps 750 mmHg 97%
20:00 +9°C° 0.1 mm 1 mps 751 mmHg 97%
21:00 +9°C° 0.1 mm 1 mps 751 mmHg 97%
22:00 +8°C° 0.1 mm 0 mps 752 mmHg 97%
23:00 +8°C° 0.1 mm 0 mps 752 mmHg 97%

Tomorrow, 31 October, Saturday

Time Temperature Precipitation Wind Pressure Humidity
00:00 +8°C° 0.1 mm 0 mps 752 mmHg 96%
01:00 +8°C° 0.1 mm 0 mps 753 mmHg 96%
02:00 +8°C° 0 mm 0 mps 753 mmHg 96%
03:00 +8°C° 0 mm 0 mps 754 mmHg 95%
04:00 +8°C° 0 mm 0 mps 754 mmHg 95%
05:00 +9°C° 0 mm 1 mps 754 mmHg 95%
06:00 +9°C° 0 mm 1 mps 755 mmHg 95%
07:00 +9°C° 0 mm 1 mps 755 mmHg 95%
08:00 +9°C° 0 mm 1 mps 755 mmHg 93%
09:00 +9°C° 0 mm 2 mps 755 mmHg 90%
10:00 +10°C° 0 mm 2 mps 756 mmHg 88%
11:00 +10°C° 0 mm 2 mps 756 mmHg 85%
12:00 +12°C° 0 mm 2 mps 756 mmHg 83%
13:00 +13°C° 0 mm 2 mps 756 mmHg 81%
14:00 +12°C° 0 mm 2 mps 756 mmHg 83%
15:00 +12°C° 0 mm 2 mps 756 mmHg 85%
16:00 +12°C° 0 mm 2 mps 755 mmHg 87%
17:00 +10°C° 0 mm 2 mps 755 mmHg 88%
18:00 +10°C° 0 mm 3 mps 755 mmHg 89%
19:00 +10°C° 0 mm 3 mps 755 mmHg 90%
20:00 +10°C° 0 mm 3 mps 755 mmHg 89%
21:00 +10°C° 0 mm 4 mps 755 mmHg 89%
22:00 +8°C° 0 mm 4 mps 755 mmHg 89%
23:00 +8°C° 0 mm 4 mps 755 mmHg 89%

Day after tomorrow, 1 November, Sunday

Time Temperature Precipitation Wind Pressure Humidity
00:00 +8°C° 0 mm 4 mps 754 mmHg 89%
01:00 +8°C° 0 mm 4 mps 754 mmHg 89%
02:00 +8°C° 0 mm 4 mps 753 mmHg 90%
03:00 +7°C° 0 mm 4 mps 753 mmHg 90%
04:00 +7°C° 0 mm 4 mps 752 mmHg 91%
05:00 +7°C° 0 mm 5 mps 752 mmHg 91%
06:00 +7°C° 0 mm 5 mps 752 mmHg 90%
07:00 +7°C° 0 mm 5 mps 752 mmHg 90%
08:00 +7°C° 0 mm 5 mps 751 mmHg 87%
09:00 +8°C° 0 mm 5 mps 751 mmHg 84%
10:00 +9°C° 0 mm 5 mps 751 mmHg 80%
11:00 +9°C° 0 mm 5 mps 750 mmHg 79%
12:00 +10°C° 0 mm 5 mps 750 mmHg 78%
13:00 +12°C° 0 mm 5 mps 749 mmHg 77%
14:00 +10°C° 0.9 mm 5 mps 749 mmHg 82%
15:00 +10°C° 0.9 mm 5 mps 748 mmHg 87%
16:00 +10°C° 0.9 mm 5 mps 748 mmHg 92%
17:00 +10°C° 0.6 mm 5 mps 748 mmHg 93%
18:00 +10°C° 0.6 mm 5 mps 748 mmHg 94%
19:00 +10°C° 0.6 mm 5 mps 747 mmHg 95%
20:00 +10°C° 0.1 mm 5 mps 747 mmHg 94%
21:00 +10°C° 0.1 mm 5 mps 747 mmHg 93%
22:00 +10°C° 0.1 mm 5 mps 747 mmHg 92%
23:00 +12°C° 0 mm 5 mps 746 mmHg 91%

2 November, Monday

Time Temperature Precipitation Wind Pressure Humidity
00:00 +12°C° 0 mm 5 mps 745 mmHg 90%
01:00 +11°C° 0 mm 6 mps 745 mmHg 90%
02:00 +11°C° 0.3 mm 6 mps 745 mmHg 91%
03:00 +11°C° 0.3 mm 6 mps 744 mmHg 91%
04:00 +13°C° 0.3 mm 6 mps 744 mmHg 92%
05:00 +13°C° 1.1 mm 6 mps 744 mmHg 93%
06:00 +13°C° 1.1 mm 6 mps 744 mmHg 94%
07:00 +13°C° 1.1 mm 6 mps 744 mmHg 95%
08:00 +14°C° 0.7 mm 6 mps 744 mmHg 94%
09:00 +14°C° 0.7 mm 6 mps 744 mmHg 94%
10:00 +15°C° 0.7 mm 6 mps 744 mmHg 93%
11:00 +15°C° 0.1 mm 6 mps 744 mmHg 91%
12:00 +15°C° 0.1 mm 7 mps 744 mmHg 89%
13:00 +16°C° 0.1 mm 7 mps 744 mmHg 87%
14:00 +16°C° 0 mm 6 mps 744 mmHg 86%
15:00 +16°C° 0 mm 6 mps 744 mmHg 85%
16:00 +16°C° 0 mm 5 mps 744 mmHg 85%
17:00 +16°C° 0 mm 6 mps 744 mmHg 85%
18:00 +15°C° 0 mm 6 mps 744 mmHg 85%
19:00 +15°C° 0 mm 6 mps 744 mmHg 86%
20:00 +15°C° 0 mm 6 mps 744 mmHg 85%
21:00 +15°C° 0 mm 5 mps 744 mmHg 84%
22:00 +14°C° 0 mm 5 mps 744 mmHg 83%
23:00 +15°C° 0 mm 6 mps 744 mmHg 82%

3 November, Tuesday

Time Temperature Precipitation Wind Pressure Humidity
00:00 +15°C° 0 mm 6 mps 745 mmHg 81%
01:00 +15°C° 0 mm 6 mps 745 mmHg 80%
02:00 +15°C° 0 mm 6 mps 746 mmHg 80%
03:00 +15°C° 0 mm 6 mps 746 mmHg 79%
04:00 +14°C° 0 mm 5 mps 747 mmHg 79%
05:00 +14°C° 0 mm 5 mps 748 mmHg 78%
06:00 +13°C° 0 mm 5 mps 749 mmHg 77%
07:00 +12°C° 0 mm 5 mps 750 mmHg 76%
08:00 +12°C° 0 mm 5 mps 751 mmHg 72%
09:00 +10°C° 0 mm 5 mps 752 mmHg 69%
10:00 +11°C° 0 mm 4 mps 753 mmHg 66%
11:00 +11°C° 0 mm 4 mps 753 mmHg 64%
12:00 +11°C° 0 mm 3 mps 753 mmHg 62%
13:00 +12°C° 0 mm 3 mps 754 mmHg 60%
14:00 +12°C° 0 mm 2 mps 754 mmHg 62%
15:00 +10°C° 0 mm 2 mps 754 mmHg 65%
16:00 +11°C° 0 mm 1 mps 754 mmHg 67%
17:00 +10°C° 0 mm 1 mps 754 mmHg 68%
18:00 +10°C° 0 mm 1 mps 754 mmHg 69%
19:00 +10°C° 0 mm 1 mps 754 mmHg 71%
20:00 +9°C° 0 mm 2 mps 754 mmHg 70%
21:00 +9°C° 0 mm 2 mps 754 mmHg 70%
22:00 +9°C° 0 mm 3 mps 753 mmHg 69%
23:00 +8°C° 0.5 mm 4 mps 753 mmHg 76%

4 November, Wednesday

Time Temperature Precipitation Wind Pressure Humidity
00:00 +10°C° 0.5 mm 4 mps 753 mmHg 84%
01:00 +9°C° 0.5 mm 5 mps 753 mmHg 91%
02:00 +9°C° 0.2 mm 5 mps 753 mmHg 89%
03:00 +9°C° 0.2 mm 5 mps 753 mmHg 87%
04:00 +9°C° 0.2 mm 5 mps 753 mmHg 84%
05:00 +8°C° 0 mm 4 mps 753 mmHg 85%
06:00 +7°C° 0 mm 4 mps 753 mmHg 86%
07:00 +8°C° 0 mm 3 mps 754 mmHg 87%
08:00 +7°C° 0 mm 4 mps 754 mmHg 83%
09:00 +7°C° 0 mm 4 mps 754 mmHg 80%
10:00 +8°C° 0 mm 4 mps 755 mmHg 77%
11:00 +8°C° 0 mm 4 mps 755 mmHg 74%
12:00 +10°C° 0 mm 4 mps 755 mmHg 71%
13:00 +10°C° 0 mm 4 mps 756 mmHg 68%
14:00 +10°C° 0 mm 4 mps 756 mmHg 69%
15:00 +9°C° 0 mm 3 mps 756 mmHg 71%
16:00 +9°C° 0 mm 3 mps 756 mmHg 73%
17:00 +9°C° 0 mm 3 mps 757 mmHg 73%
18:00 +9°C° 0 mm 3 mps 757 mmHg 73%
19:00 +9°C° 0 mm 3 mps 758 mmHg 73%
20:00 +9°C° 0 mm 3 mps 758 mmHg 74%
21:00 +8°C° 0 mm 3 mps 758 mmHg 76%
22:00 +7°C° 0 mm 4 mps 759 mmHg 77%
23:00 +8°C° 0 mm 3 mps 759 mmHg 82%
Show more